Terminal Aerodrome Forecast
Issued by NWS

Current Version | Previous Version | Text Only | Print | Product List | Glossary On
Versions: 1 2 3 4 5 6 7 8 9 10 11 12 13 14 15 16 17 18 19 20 21
000
FTUS45 KABQ 022100 AAA
TAFFMN
TAF AMD
KFMN 022123Z 0221/0318 20025G35KT P6SM VCSH SCT040 BKN070
     FM030000 24018G28KT 5SM -RASN BKN025 OVC040
      TEMPO 0301/0305 3SM -SN BR OVC015
     FM030600 26010G17KT P6SM VCSH BKN025
     FM031500 29012KT P6SM VCSH SCT030 BKN050=

USA.gov is the U.S. government's official web portal to all federal, state and local government web resources and services.